Tracking 33165 objects as of 7-Feb-2026
HD Live streaming from Space Station
objects crossing your sky now

NOAA 16 DEB

Track NOAA 16 DEB now!
10-day predictions


NORAD ID: 42405
Int'l Code: 2000-055SZ
Perigee: 708.6 km
Apogee: 742.2 km
Inclination: 99.0 °
Period: 99.2 minutes
Semi major axis: 7096 km
RCS: Unknown
Launch date: September 21, 2000
Source: United States (US)
Launch site: AIR FORCE WESTERN TEST RANGE (AFWTR)

Note: This is SATELLITE DEBRIS
Your satellite tracking list
Your tracking list is empty




NASA's NSSDC Master Catalog

Two Line Element Set (TLE):
1 42405U 00055SZ  26038.49067836  .00012132  00000-0  29828-2 0  9997
2 42405  99.0328 279.7283 0023713 144.6965 215.5804 14.52270253514991
Source of the keplerian elements: AFSPC